This is the latest recevied weather packets stored in our database for station/object GW1480. If no packets are shown the sender has not sent any weather packets the latest 10 day(s).
| Time | Temp. | Humidity | Pressure | Rain* | Wind** | Luminosity | Snow |
|---|---|---|---|---|---|---|---|
| 1778084146 | 15° C | 97% | 1013.5 hPa | 13.21 mm | - | - | - |
| 1778080174 | 16.67° C | 97% | 1012.5 hPa | 12.95 mm | - | - | - |
| 1778079791 | 16.67° C | 97% | 1012.5 hPa | 12.95 mm | - | - | - |
| 1778077277 | 16.67° C | 97% | 1011.8 hPa | 12.95 mm | - | - | - |
| 1778076575 | 16.67° C | 98% | 1012.1 hPa | 12.95 mm | - | - | - |
| 1778074430 | 16.11° C | 97% | 1011.5 hPa | 12.95 mm | - | - | - |
| 1778071906 | 15.56° C | 98% | 1010.8 hPa | 12.95 mm | - | - | - |
| 1778070800 | 15.56° C | 98% | 1010.8 hPa | 12.95 mm | - | - | - |
| 1778070435 | 15.56° C | 98% | 1010.8 hPa | 12.95 mm | - | - | - |
| 1778067588 | 15° C | 98% | 1010.4 hPa | 12.95 mm | - | - | - |
| 1778065753 | 15° C | 98% | 1010.8 hPa | 12.7 mm | - | - | - |
| 1778063631 | 15° C | 98% | 1009.4 hPa | 11.18 mm | - | - | - |
| 1778059273 | 15° C | 98% | 1009.1 hPa | 9.65 mm | - | - | - |
| 1778057856 | 15° C | 98% | 1009.8 hPa | 7.11 mm | - | - | - |
| 1778056766 | 15° C | 97% | 1009.4 hPa | 7.11 mm | - | - | - |
| 1778056417 | 15° C | 97% | 1009.4 hPa | 6.6 mm | - | - | - |
| 1778052789 | 15° C | 97% | 1010.1 hPa | 2.03 mm | - | - | - |
| 1778052103 | 14.44° C | 97% | 1010.1 hPa | 2.03 mm | - | - | - |
| 1778050278 | 14.44° C | 96% | 1010.1 hPa | 0.25 mm | - | - | - |
| 1778048110 | 14.44° C | 96% | 1010.4 hPa | 0.25 mm | - | - | - |
| 1778045952 | 14.44° C | 95% | 1010.8 hPa | 0 mm | - | - | - |
| 1778040229 | 15.56° C | 92% | 1010.8 hPa | 0 mm | - | - | - |
| 1778038035 | 16.11° C | 88% | 1011.1 hPa | 0 mm | - | - | - |
| 1778037350 | 16.11° C | 87% | 1011.1 hPa | 0 mm | - | - | - |
| 1778036267 | 16.11° C | 87% | 1011.1 hPa | 0 mm | - | - | - |
* Rain since midnight (hover to see other rain measurements)
** Current wind speed in m/s (hover to see current wind gust speed)